Tracking 29059 objects as of 19-Jun-2024
HD Live streaming from Space Station
objects crossing your sky now

OBJECT AC

Track OBJECT AC now!
10-day predictions


NORAD ID: 56872
Int'l Code: 2023-081AC
Perigee: 445.5 km
Apogee: 458.0 km
Inclination: 97.4 °
Period: 93.5 minutes
Semi major axis: 6822 km
RCS: Unknown
Launch date: June 7, 2023
Source: (TBD)
Launch site: Jiuquan Satellite Launch Center, China (JSC)
Your satellite tracking list
Your tracking list is empty




NASA's NSSDC Master Catalog

Two Line Element Set (TLE):
1 56872U 23081AC  24170.92936570  .00031738  00000-0  78101-3 0  9999
2 56872  97.3712 247.7811 0009210  36.5624 323.6249 15.40510420 57718
Source of the keplerian elements: AFSPC